{"data":{"norad_id":65263,"intl_designator":"2025-180E","name":"2025-180E","alt_names":[],"object_type":"PAYLOAD","status":"ACTIVE","operator":null,"country":"TBD","launch_date":"2025-08-19","launch_site_code":"JSC","launch_vehicle":null,"mission":null,"orbit_class":"UNKNOWN","rcs_meters":null,"size_class":null,"mass_kg":null,"dimensions":null,"purposes":[],"wikipedia_slug":null,"has_3d_model":false,"image_url":null,"decayed_at":null,"tle_current":{"epoch":"2026-09-21T22:39:28.467072Z","epoch_age_seconds":37432,"freshness":"FRESH","line1":"1 65263U 25180E   26264.94407948  .00008506  00000+0  44187-3 0  9998","line2":"2 65263  97.4788  30.6076 0001746  92.4971 267.6462 15.16340732 60381","mean_motion":15.16340732,"eccentricity":0.0001746,"inclination_deg":97.4788,"raan_deg":30.6076,"arg_perigee_deg":92.4971,"mean_anomaly_deg":267.6462,"bstar":0.00044187,"rev_number":6038,"period_min":94.965463210943,"perigee_km":515.70733640846,"apogee_km":518.11508724403,"semimajor_km":6895.0482118262,"source":"CELESTRAK","updated_at":"2026-09-22T09:00:30.245299Z"}}}